User: anonymous   Login
Location: Unspecified
(0.0000°N, 0.0000°E)
Time: 06:47:36
(UTC+00:00)
Language:

STARLINK-5190 - Orbit

View from above orbital plane
View from above orbital plane
View from above satellite
View from above satellite

Ground track
Ground track

The orbit is defined by the following mean orbital elements,

1 54092U          26145.40913632 +.00000000 +00000-0 +48364-3 0 00007
2 54092  53.1724 154.3659 0003739  32.5127 327.6125 15.78482860    04
Epoch (UTC): 25 May 2026 09:49:09
Eccentricity: 0.0003739
inclination: 53.1724°
perigee height: 332 km
apogee height: 337 km
right ascension of ascending node: 154.3659°
argument of perigee: 32.5127°
revolutions per day: 15.78482860
mean anomaly at epoch: 327.6125°

The dashed part of the orbit path shows where the satellite is in the earth's shadow,  

DLR